TimeEDT,TemperatureF,Dew PointF,Humidity,Sea Level PressureIn,VisibilityMPH,Wind Direction,Wind SpeedMPH,Gust SpeedMPH,PrecipitationIn,Events,Conditions,WindDirDegrees,DateUTC
12:51 AM,57.9,55.9,93,29.92,10.0,Calm,Calm,-,N/A,,Mostly Cloudy,0,2013-05-10 04:51:00
1:51 AM,55.9,55.0,97,29.91,5.0,Calm,Calm,-,N/A,,Partly Cloudy,0,2013-05-10 05:51:00
2:09 AM,55.4,53.6,94,29.91,1.5,South,3.5,-,N/A,,Partly Cloudy,190,2013-05-10 06:09:00
2:16 AM,55.4,53.6,94,29.91,2.0,Calm,Calm,-,N/A,,Scattered Clouds,0,2013-05-10 06:16:00
2:51 AM,54.0,54.0,100,29.91,0.5,Calm,Calm,-,N/A,Fog,Fog,0,2013-05-10 06:51:00
3:05 AM,53.6,53.6,100,29.92,0.5,SSE,3.5,-,N/A,Fog,Fog,160,2013-05-10 07:05:00
3:51 AM,53.1,53.1,100,29.92,0.5,Calm,Calm,-,N/A,Fog,Fog,0,2013-05-10 07:51:00
4:01 AM,53.6,51.8,94,29.92,0.1,SE,3.5,-,N/A,Fog,Fog,130,2013-05-10 08:01:00
4:16 AM,51.8,51.8,100,29.93,0.1,Calm,Calm,-,N/A,Fog,Fog,0,2013-05-10 08:16:00
4:51 AM,52.0,52.0,100,29.94,0.1,Calm,Calm,-,N/A,Fog,Fog,0,2013-05-10 08:51:00
5:03 AM,51.8,51.8,100,29.93,0.1,Calm,Calm,-,N/A,Fog,Fog,0,2013-05-10 09:03:00
5:51 AM,52.0,51.1,97,29.94,0.1,Calm,Calm,-,N/A,Fog,Fog,0,2013-05-10 09:51:00
5:56 AM,51.8,51.8,100,29.94,0.1,Calm,Calm,-,N/A,Fog,Fog,0,2013-05-10 09:56:00
6:03 AM,51.8,51.8,100,29.95,0.1,Calm,Calm,-,N/A,Fog,Fog,0,2013-05-10 10:03:00
6:29 AM,51.8,51.8,100,29.96,0.1,Calm,Calm,-,N/A,Fog,Fog,0,2013-05-10 10:29:00
6:51 AM,53.1,53.1,100,29.96,0.1,Calm,Calm,-,N/A,Fog,Fog,0,2013-05-10 10:51:00
7:18 AM,53.6,53.6,100,29.97,0.2,SE,3.5,-,N/A,,Scattered Clouds,140,2013-05-10 11:18:00
7:28 AM,53.6,53.6,100,29.96,1.0,Calm,Calm,-,N/A,,Partly Cloudy,0,2013-05-10 11:28:00
7:36 AM,53.6,53.6,100,29.97,2.0,Calm,Calm,-,N/A,,Partly Cloudy,0,2013-05-10 11:36:00
7:45 AM,55.4,53.6,94,29.97,3.0,Calm,Calm,-,N/A,,Scattered Clouds,0,2013-05-10 11:45:00
7:51 AM,55.9,55.0,97,29.97,4.0,Calm,Calm,-,N/A,,Scattered Clouds,0,2013-05-10 11:51:00
8:51 AM,60.1,55.9,86,29.97,7.0,Calm,Calm,-,N/A,,Scattered Clouds,0,2013-05-10 12:51:00
9:51 AM,66.0,55.9,70,29.96,10.0,Calm,Calm,-,N/A,,Scattered Clouds,0,2013-05-10 13:51:00
10:51 AM,71.1,57.9,63,29.98,10.0,Calm,Calm,-,N/A,,Mostly Cloudy,0,2013-05-10 14:51:00
11:51 AM,73.9,55.9,53,29.95,10.0,South,3.5,-,N/A,,Mostly Cloudy,180,2013-05-10 15:51:00
12:51 PM,77.0,55.0,47,29.93,10.0,East,6.9,-,N/A,,Mostly Cloudy,100,2013-05-10 16:51:00
1:51 PM,77.0,54.0,45,29.93,10.0,Variable,3.5,-,N/A,,Mostly Cloudy,0,2013-05-10 17:51:00
2:51 PM,79.0,52.0,39,29.92,10.0,South,6.9,-,N/A,,Mostly Cloudy,190,2013-05-10 18:51:00
3:51 PM,79.0,50.0,36,29.91,10.0,SSW,8.1,-,N/A,,Mostly Cloudy,200,2013-05-10 19:51:00
4:51 PM,78.1,52.0,40,29.90,10.0,South,12.7,-,N/A,,Overcast,190,2013-05-10 20:51:00
5:51 PM,77.0,51.1,40,29.89,10.0,South,12.7,-,N/A,,Overcast,190,2013-05-10 21:51:00
6:51 PM,75.0,51.1,43,29.91,10.0,South,9.2,-,N/A,,Overcast,180,2013-05-10 22:51:00
7:51 PM,72.0,52.0,49,29.91,10.0,South,8.1,-,N/A,,Overcast,190,2013-05-10 23:51:00
8:51 PM,70.0,52.0,53,29.90,10.0,South,11.5,19.6,N/A,,Overcast,180,2013-05-11 00:51:00
9:51 PM,68.0,53.1,59,29.93,10.0,South,8.1,-,N/A,,Overcast,180,2013-05-11 01:51:00
10:51 PM,66.0,54.0,65,29.91,10.0,South,10.4,-,N/A,,Mostly Cloudy,170,2013-05-11 02:51:00
11:51 PM,64.0,54.0,70,29.90,10.0,South,6.9,-,N/A,,Scattered Clouds,170,2013-05-11 03:51:00